Location: Althorst
(53.6379°N, 10.7715°E)
Time: 04:44:04
(UTC+00:00)

Meteor 1-27 Rocket - Pass Details

Date: 10 December 2019
Orbit: 831 x 909 km, 81.3° (Epoch: 18 January)

Event Time Altitude Azimuth Distance (km) Brightness Sun altitude
Rises 16:13:13 0° 171° (S) 3,448 7.1 -10.4°
Reaches altitude 10° 16:15:41 10° 165° (SSE) 2,526 6.3 -10.7°
Maximum altitude 16:21:10 47° 94° (E) 1,165 4.1 -11.5°
Drops below altitude 10° 16:26:47 10° 22° (NNE) 2,589 5.8 -12.2°
Enters shadow 16:28:59 - 17° (NNE) 3,409 6.5 -12.5°
